Weather History for Holland, MI

Change the Weather History Date:

Wednesday, January 29, 2014

  Actual Average Record
Temperature  
Mean Temperature 14 °F 26 °F  
Max Temperature 19 °F 32 °F 61 °F (2013)
Min Temperature 9 °F 20 °F -6 °F (1966)
Degree Days  
Heating Degree Days 51 39  
Month to date heating degree days 1341 1122  
Since 1 July heating degree days 3757 3390  
Cooling Degree Days 0 0  
Month to date cooling degree days 0 0  
Year to date cooling degree days 0 0  
Moisture  
Dew Point 4 °F    
Average Humidity 64    
Maximum Humidity 73    
Minimum Humidity 54    
Precipitation  
Precipitation 0.05 in 0.06 in 1.11 in (2013)
Month to date precipitation 2.28 1.96  
Year to date precipitation 2.28 1.96  
Sea Level Pressure  
Sea Level Pressure 30.13 in    
Wind  
Wind Speed 17 mph (WSW)    
Max Wind Speed 26 mph    
Max Gust Speed 32 mph    
Visibility 9 miles    
Events Snow    
T = Trace of Precipitation, MM = Missing Value Source: NWS Daily Summary

Daily Weather History Graph

Daily Weather History Graph

Search for Another Location

Airport:

Trip Planner

Search our weather history database for the weather conditions in past years. The results will help you decide how hot, cold, wet, or windy it might be!

Date:

Astronomy

Jan. 29, 2014 Rise Set
Actual Time 8:01 AM EST 5:53 PM EST
Civil Twilight 7:31 AM EST 6:23 PM EST
Nautical Twilight 6:57 AM EST 6:57 PM EST
Astronomical Twilight 6:24 AM EST 7:31 PM EST
Moon 6:38 AM EST (1/29) 4:52 PM EST (1/29)
Length of Visible Light 10h 52m
Length of Day
9h 51m
Waning Crescent, 2% of the Moon is Illuminated
Jan 29
Waning Crescent
Jan 30
New
Feb 6
First Quarter
Feb 14
Full
Feb 22
Last Quarter

Hourly Weather History & Observations

Time (EST) Temp. Windchill Dew Point Humidity Pressure Visibility Wind Dir Wind Speed Gust Speed Precip Events Conditions
12:53 AM 10.0 °F -9.5 °F 1.9 °F 70% 30.17 in 5.0 mi West 21.9 mph 28.8 mph N/A   Haze
1:53 AM 10.0 °F -9.1 °F 1.0 °F 67% 30.16 in 6.0 mi West 20.7 mph 29.9 mph N/A   Haze
2:28 AM 10.0 °F -8.1 °F 1.0 °F 67% 30.10 in 10.0 mi West 18.4 mph 26.5 mph N/A   Overcast
2:53 AM 10.0 °F -8.1 °F 1.9 °F 70% 30.14 in 9.0 mi West 18.4 mph 26.5 mph N/A   Overcast
3:53 AM 10.0 °F -9.1 °F 1.0 °F 67% 30.14 in 10.0 mi West 20.7 mph 28.8 mph N/A   Overcast
4:46 AM 10.0 °F -8.6 °F 1.9 °F 70% 30.08 in 10.0 mi West 19.6 mph 28.8 mph N/A   Mostly Cloudy
4:53 AM 10.0 °F -8.6 °F 1.9 °F 70% 30.13 in 10.0 mi West 19.6 mph 27.6 mph N/A   Mostly Cloudy
5:11 AM 10.9 °F -6.5 °F 1.9 °F 67% 30.08 in 10.0 mi West 17.3 mph - N/A   Mostly Cloudy
5:22 AM 10.9 °F -5.9 °F 3.0 °F 70% 30.08 in 1.5 mi West 16.1 mph 29.9 mph 0.00 in Snow Light Snow
5:29 AM 10.9 °F -7.5 °F 3.0 °F 70% 30.08 in 0.2 mi West 19.6 mph 29.9 mph 0.01 in Snow Heavy Snow
5:46 AM 10.0 °F -7.6 °F 3.0 °F 73% 30.08 in 2.5 mi West 17.3 mph 26.5 mph 0.05 in   Haze
5:53 AM 10.9 °F -6.5 °F 1.9 °F 67% 30.13 in 9.0 mi West 17.3 mph 26.5 mph 0.05 in   Mostly Cloudy
6:53 AM 10.9 °F -7.0 °F 3.0 °F 70% 30.12 in 10.0 mi West 18.4 mph 25.3 mph N/A   Mostly Cloudy
7:33 AM 10.9 °F -6.5 °F 1.9 °F 67% 30.08 in 10.0 mi West 17.3 mph 26.5 mph N/A   Scattered Clouds
7:53 AM 10.9 °F -6.5 °F 3.0 °F 70% 30.13 in 10.0 mi West 17.3 mph 24.2 mph N/A   Mostly Cloudy
8:53 AM 12.0 °F -4.0 °F 3.9 °F 70% 30.15 in 10.0 mi West 15.0 mph 24.2 mph N/A   Mostly Cloudy
9:13 AM 12.0 °F -4.5 °F 3.9 °F 70% 30.10 in 10.0 mi West 16.1 mph 25.3 mph N/A   Scattered Clouds
9:53 AM 12.9 °F -5.3 °F 3.9 °F 67% 30.16 in 10.0 mi West 20.7 mph 27.6 mph N/A   Partly Cloudy
10:48 AM 14.0 °F -2.5 °F 5.0 °F 67% 30.12 in 9.0 mi West 17.3 mph 31.1 mph N/A   Mostly Cloudy
10:53 AM 14.0 °F -3.9 °F 5.0 °F 67% 30.17 in 9.0 mi West 20.7 mph 31.1 mph N/A   Mostly Cloudy
11:49 AM 15.8 °F -2.3 °F 6.8 °F 68% 30.13 in 10.0 mi West 23.0 mph 26.5 mph N/A   Scattered Clouds
11:53 AM 15.1 °F -2.0 °F 7.0 °F 70% 30.18 in 10.0 mi West 19.6 mph 26.5 mph N/A   Mostly Cloudy
12:37 PM 15.1 °F -3.3 °F 6.1 °F 68% 30.13 in 8.0 mi West 23.0 mph 31.1 mph N/A   Partly Cloudy
12:53 PM 16.0 °F -1.7 °F 6.1 °F 65% 30.16 in 10.0 mi West 21.9 mph 28.8 mph N/A   Clear
1:53 PM 17.1 °F 0.6 °F 8.1 °F 68% 30.14 in 9.0 mi West 19.6 mph 28.8 mph N/A   Partly Cloudy
2:53 PM 19.0 °F 2.0 °F 8.1 °F 62% 30.14 in 9.0 mi West 23.0 mph 31.1 mph N/A   Clear
3:53 PM 19.0 °F 2.4 °F 8.1 °F 62% 30.14 in 9.0 mi WSW 21.9 mph - N/A   Clear
4:53 PM 19.0 °F 5.0 °F 7.0 °F 59% 30.15 in 10.0 mi SW 15.0 mph - N/A   Clear
5:53 PM 19.0 °F 4.5 °F 7.0 °F 59% 30.13 in 10.0 mi SW 16.1 mph - N/A   Clear
6:53 PM 16.0 °F 1.1 °F 5.0 °F 62% 30.15 in 10.0 mi SSW 15.0 mph - N/A   Clear
7:53 PM 17.1 °F 3.6 °F 3.0 °F 54% 30.14 in 10.0 mi South 12.7 mph - N/A   Clear
8:53 PM 12.0 °F -0.4 °F 1.0 °F 61% 30.14 in 10.0 mi South 9.2 mph - N/A   Clear
9:53 PM 10.9 °F -1.8 °F 1.0 °F 64% 30.11 in 10.0 mi South 9.2 mph - N/A   Clear
10:53 PM 10.9 °F -3.4 °F 1.0 °F 64% 30.09 in 10.0 mi South 11.5 mph - N/A   Clear
11:53 PM 16.0 °F 2.3 °F 3.9 °F 59% 30.07 in 10.0 mi SSW 12.7 mph - N/A   Clear